timestamp,wind_dir_avg,wind_spd_max_dir,wind_spd_avg,wind_spd_gust,battery_voltage,lat,long
2019-01-15 00:00:00+00:00,261.0,265.0,6.5,7.73,,47.59359,-54.27349
2019-01-15 00:10:00+00:00,249.0,252.0,6.3,7.31,,47.59359,-54.27349
2019-01-15 00:20:00+00:00,265.0,261.0,6.31,7.17,,47.59359,-54.27349
2019-01-15 00:30:00+00:00,257.0,259.0,7.02,7.78,,47.59359,-54.27349
2019-01-15 00:40:00+00:00,266.0,266.0,5.93,7.1,,47.59359,-54.27349
2019-01-15 00:50:00+00:00,258.0,255.0,7.53,8.72,,47.59359,-54.27349
2019-01-15 01:00:00+00:00,266.0,266.0,7.01,7.59,,47.59359,-54.27349
2019-01-15 01:10:00+00:00,255.0,254.0,7.2,9.51,,47.59359,-54.27349
2019-01-15 01:20:00+00:00,259.0,261.0,7.99,9.34,,47.59359,-54.27349
2019-01-15 01:30:00+00:00,238.0,239.0,7.17,8.92,,47.59359,-54.27349
2019-01-15 01:40:00+00:00,276.0,271.0,6.79,8.45,,47.59359,-54.27349
2019-01-15 01:50:00+00:00,270.0,270.0,7.0,7.73,,47.59359,-54.27349
2019-01-15 02:00:00+00:00,273.0,281.0,5.09,5.56,,47.59359,-54.27349
2019-01-15 02:10:00+00:00,274.0,283.0,6.32,7.15,,47.59359,-54.27349
2019-01-15 02:20:00+00:00,279.0,282.0,6.27,7.66,,47.59359,-54.27349
2019-01-15 02:30:00+00:00,261.0,268.0,7.09,7.92,,47.59359,-54.27349
2019-01-15 02:40:00+00:00,230.0,234.0,6.27,7.1,,47.59359,-54.27349
2019-01-15 02:50:00+00:00,243.0,236.0,6.39,7.45,,47.59359,-54.27349
2019-01-15 03:00:00+00:00,234.0,239.0,5.9,7.4,,47.59359,-54.27349
2019-01-15 03:10:00+00:00,230.0,230.0,5.14,6.04,,47.59359,-54.27349
2019-01-15 03:20:00+00:00,237.0,240.0,5.57,7.53,,47.59359,-54.27349
2019-01-15 03:30:00+00:00,238.0,249.0,5.27,6.61,,47.59359,-54.27349
2019-01-15 03:40:00+00:00,240.0,245.0,7.3,8.54,,47.59359,-54.27349
2019-01-15 03:50:00+00:00,241.0,242.0,7.05,8.15,,47.59359,-54.27349
2019-01-15 04:00:00+00:00,242.0,243.0,5.42,7.31,,47.59359,-54.27349
2019-01-15 04:10:00+00:00,265.0,261.0,5.26,5.95,,47.59359,-54.27349
2019-01-15 04:20:00+00:00,274.0,278.0,4.65,5.67,,47.59359,-54.27349
2019-01-15 04:30:00+00:00,252.0,253.0,3.95,4.98,,47.59359,-54.27349
2019-01-15 04:40:00+00:00,266.0,270.0,4.46,5.61,,47.59359,-54.27349
2019-01-15 04:50:00+00:00,277.0,274.0,4.34,5.04,,47.59359,-54.27349
2019-01-15 05:00:00+00:00,276.0,272.0,1.8,2.24,,47.59359,-54.27349
2019-01-15 05:10:00+00:00,278.0,277.0,1.92,2.54,,47.59359,-54.27349
2019-01-15 05:20:00+00:00,303.0,312.0,1.59,2.0,,47.59359,-54.27349
2019-01-15 05:30:00+00:00,269.0,251.0,1.13,1.46,,47.59359,-54.27349
2019-01-15 05:40:00+00:00,205.0,205.0,0.96,1.19,,47.59359,-54.27349
2019-01-15 05:50:00+00:00,194.0,180.0,0.73,1.18,,47.59359,-54.27349
2019-01-15 06:00:00+00:00,199.0,179.0,4.07,4.96,,47.59359,-54.27349
2019-01-15 06:10:00+00:00,190.0,190.0,3.84,5.01,,47.59359,-54.27349
2019-01-15 06:20:00+00:00,197.0,198.0,4.47,5.09,,47.59359,-54.27349
2019-01-15 06:30:00+00:00,189.0,202.0,3.67,4.31,,47.59359,-54.27349
2019-01-15 06:40:00+00:00,213.0,217.0,3.66,4.51,,47.59359,-54.27349
2019-01-15 06:50:00+00:00,185.0,184.0,5.84,6.84,,47.59359,-54.27349
2019-01-15 07:00:00+00:00,179.0,177.0,7.63,8.57,,47.59359,-54.27349
2019-01-15 07:10:00+00:00,180.0,172.0,7.03,8.38,,47.59359,-54.27349
2019-01-15 07:20:00+00:00,176.0,176.0,6.31,6.8,,47.59359,-54.27349
2019-01-15 07:30:00+00:00,181.0,189.0,6.49,6.98,,47.59359,-54.27349
2019-01-15 07:40:00+00:00,182.0,181.0,5.4,6.33,,47.59359,-54.27349
2019-01-15 07:50:00+00:00,171.0,176.0,3.64,4.43,,47.59359,-54.27349
2019-01-15 08:00:00+00:00,156.0,161.0,3.54,4.15,,47.59359,-54.27349
2019-01-15 08:10:00+00:00,141.0,135.0,4.34,5.01,,47.59359,-54.27349
2019-01-15 08:20:00+00:00,131.0,129.0,3.35,4.34,,47.59359,-54.27349
2019-01-15 08:30:00+00:00,133.0,144.0,4.18,5.74,,47.59359,-54.27349
2019-01-15 08:40:00+00:00,120.0,144.0,3.38,5.18,,47.59359,-54.27349
2019-01-15 08:50:00+00:00,139.0,137.0,5.7,6.69,,47.59359,-54.27349
2019-01-15 09:00:00+00:00,139.0,133.0,5.22,6.39,,47.59359,-54.27349
2019-01-15 09:10:00+00:00,128.0,129.0,4.12,6.33,,47.59359,-54.27349
2019-01-15 09:20:00+00:00,108.0,93.0,3.24,5.2,,47.59359,-54.27349
2019-01-15 09:30:00+00:00,118.0,101.0,3.25,5.54,,47.59359,-54.27349
2019-01-15 09:40:00+00:00,113.0,113.0,3.12,5.36,,47.59359,-54.27349
2019-01-15 09:50:00+00:00,112.0,120.0,3.43,4.98,,47.59359,-54.27349
2019-01-15 10:00:00+00:00,98.0,99.0,3.96,5.77,,47.59359,-54.27349
2019-01-15 10:10:00+00:00,105.0,108.0,2.87,5.22,,47.59359,-54.27349
2019-01-15 10:20:00+00:00,108.0,85.0,3.21,4.6,,47.59359,-54.27349
2019-01-15 10:30:00+00:00,102.0,115.0,4.36,7.79,,47.59359,-54.27349
2019-01-15 10:40:00+00:00,105.0,81.0,4.13,6.93,,47.59359,-54.27349
2019-01-15 10:50:00+00:00,95.0,93.0,3.83,6.05,,47.59359,-54.27349
2019-01-15 11:00:00+00:00,94.0,111.0,4.56,8.16,,47.59359,-54.27349
2019-01-15 11:10:00+00:00,94.0,102.0,5.65,8.37,,47.59359,-54.27349
2019-01-15 11:20:00+00:00,92.0,80.0,4.82,6.94,,47.59359,-54.27349
2019-01-15 11:30:00+00:00,91.0,99.0,5.78,8.55,,47.59359,-54.27349
2019-01-15 11:40:00+00:00,94.0,95.0,5.96,8.31,,47.59359,-54.27349
2019-01-15 11:50:00+00:00,90.0,89.0,6.02,8.06,,47.59359,-54.27349
2019-01-15 12:00:00+00:00,100.0,99.0,6.13,10.16,,47.59359,-54.27349
2019-01-15 12:10:00+00:00,94.0,94.0,5.2,7.0,,47.59359,-54.27349
2019-01-15 12:20:00+00:00,93.0,89.0,6.43,11.71,,47.59359,-54.27349
2019-01-15 12:30:00+00:00,87.0,83.0,7.13,8.78,,47.59359,-54.27349
2019-01-15 12:40:00+00:00,96.0,88.0,7.29,12.21,,47.59359,-54.27349
2019-01-15 12:50:00+00:00,90.0,87.0,7.83,13.99,,47.59359,-54.27349
2019-01-15 13:00:00+00:00,88.0,78.0,8.09,14.51,,47.59359,-54.27349
2019-01-15 13:10:00+00:00,88.0,83.0,7.29,12.36,,47.59359,-54.27349
2019-01-15 13:20:00+00:00,97.0,91.0,5.95,12.88,,47.59359,-54.27349
2019-01-15 13:30:00+00:00,92.0,91.0,8.42,13.64,,47.59359,-54.27349
2019-01-15 13:40:00+00:00,89.0,84.0,9.8,14.35,,47.59359,-54.27349
2019-01-15 13:50:00+00:00,84.0,83.0,17.1,18.88,,47.59359,-54.27349
2019-01-15 14:00:00+00:00,80.0,81.0,16.77,18.7,,47.59359,-54.27349
2019-01-15 14:10:00+00:00,78.0,81.0,17.35,20.06,,47.59359,-54.27349
2019-01-15 14:20:00+00:00,79.0,73.0,16.82,19.44,,47.59359,-54.27349
2019-01-15 14:30:00+00:00,78.0,76.0,17.38,19.14,,47.59359,-54.27349
2019-01-15 14:40:00+00:00,80.0,80.0,15.49,19.91,,47.59359,-54.27349
2019-01-15 14:50:00+00:00,74.0,69.0,16.87,18.39,,47.59359,-54.27349
2019-01-15 15:00:00+00:00,71.0,75.0,16.96,18.62,,47.59359,-54.27349
2019-01-15 15:10:00+00:00,72.0,74.0,18.04,19.8,,47.59359,-54.27349
2019-01-15 15:20:00+00:00,76.0,73.0,17.42,19.79,,47.59359,-54.27349
2019-01-15 15:30:00+00:00,70.0,70.0,18.8,20.77,,47.59359,-54.27349
2019-01-15 15:40:00+00:00,68.0,69.0,17.6,19.4,,47.59359,-54.27349
2019-01-15 15:50:00+00:00,68.0,64.0,17.48,19.52,,47.59359,-54.27349
2019-01-15 16:00:00+00:00,74.0,76.0,16.93,18.85,,47.59359,-54.27349
2019-01-15 16:10:00+00:00,74.0,74.0,17.37,19.04,,47.59359,-54.27349
2019-01-15 16:20:00+00:00,74.0,71.0,16.3,18.38,,47.59359,-54.27349
2019-01-15 16:30:00+00:00,75.0,77.0,16.37,18.11,,47.59359,-54.27349
2019-01-15 16:40:00+00:00,72.0,73.0,16.27,17.65,,47.59359,-54.27349
2019-01-15 16:50:00+00:00,75.0,78.0,16.86,18.98,,47.59359,-54.27349
2019-01-15 17:00:00+00:00,69.0,71.0,17.4,19.69,,47.59359,-54.27349
2019-01-15 17:10:00+00:00,67.0,68.0,17.34,19.07,,47.59359,-54.27349
2019-01-15 17:20:00+00:00,69.0,72.0,18.41,20.45,,47.59359,-54.27349
2019-01-15 17:30:00+00:00,68.0,71.0,16.98,18.23,,47.59359,-54.27349
2019-01-15 17:40:00+00:00,65.0,58.0,17.17,19.01,,47.59359,-54.27349
2019-01-15 17:50:00+00:00,65.0,72.0,17.02,18.97,,47.59359,-54.27349
2019-01-15 18:00:00+00:00,62.0,60.0,17.16,18.98,,47.59359,-54.27349
2019-01-15 18:10:00+00:00,58.0,54.0,16.5,17.57,,47.59359,-54.27349
2019-01-15 18:20:00+00:00,58.0,52.0,16.86,19.49,,47.59359,-54.27349
2019-01-15 18:30:00+00:00,58.0,57.0,17.39,18.86,,47.59359,-54.27349
2019-01-15 18:40:00+00:00,59.0,60.0,16.96,18.99,,47.59359,-54.27349
2019-01-15 18:50:00+00:00,55.0,55.0,17.93,20.54,,47.59359,-54.27349
2019-01-15 19:00:00+00:00,57.0,47.0,16.8,19.72,,47.59359,-54.27349
2019-01-15 19:10:00+00:00,53.0,53.0,17.41,19.47,,47.59359,-54.27349
2019-01-15 19:20:00+00:00,53.0,53.0,14.39,17.16,,47.59359,-54.27349
2019-01-15 19:30:00+00:00,48.0,45.0,15.35,17.56,,47.59359,-54.27349
2019-01-15 19:40:00+00:00,50.0,45.0,14.56,16.44,,47.59359,-54.27349
2019-01-15 19:50:00+00:00,45.0,50.0,16.22,18.92,,47.59359,-54.27349
2019-01-15 20:00:00+00:00,44.0,44.0,16.9,19.6,,47.59359,-54.27349
2019-01-15 20:10:00+00:00,46.0,50.0,16.11,17.93,,47.59359,-54.27349
2019-01-15 20:20:00+00:00,43.0,45.0,16.02,18.76,,47.59359,-54.27349
2019-01-15 20:30:00+00:00,36.0,36.0,15.24,18.1,,47.59359,-54.27349
2019-01-15 20:40:00+00:00,36.0,44.0,15.33,17.55,,47.59359,-54.27349
